Waarnemingen

Advertentie
Mijn weer
St-Girons, Frankrijk (7627): temperatuur & dauwpunt: 17.07.2017 08:00:00 - 23.07.2017 08:00:00 (CEST)St-Girons, Frankrijk (7627): temperatuur 5cm: 17.07.2017 08:00:00 - 23.07.2017 08:00:00 (CEST)St-Girons, Frankrijk (7627): temperatuur -20cm & temperatuur -100cm: 17.07.2017 08:00:00 - 23.07.2017 08:00:00 (CEST)St-Girons, Frankrijk (7627): windsnelheid & windstoten: 17.07.2017 08:00:00 - 23.07.2017 08:00:00 (CEST)St-Girons, Frankrijk (7627): windrichting: 17.07.2017 08:00:00 - 23.07.2017 08:00:00 (CEST)St-Girons, Frankrijk (7627): luchtdruk: 17.07.2017 08:00:00 - 23.07.2017 08:00:00 (CEST)St-Girons, Frankrijk (7627): zicht: 17.07.2017 08:00:00 - 23.07.2017 08:00:00 (CEST)St-Girons, Frankrijk (7627): Zonneschijnduur: 17.07.2017 08:00:00 - 23.07.2017 08:00:00 (CEST)St-Girons, Frankrijk (7627): neerslag: 17.07.2017 08:00:00 - 23.07.2017 08:00:00 (CEST)
Datum & Tijd tt [°C] td [°C] tt 5cm [°C] tt -20cm [°C] tt -100cm [°C] ff [km/u] ff [kn] fx [km/u] fx [kn] dd ppp [hPa] vv [km] sd [min] rr [mm]
23.07.2017 08:00:00 15,5 14,7 15,3 20,7 18,9 0 0 4 2 N 1022,1 7 0 0,0
23.07.2017 07:00:00 15,3 14,7 15,1 20,7 19,0 3 1 4 2 O 1022,0 10 0 0,0
23.07.2017 06:00:00 15,5 14,5 15,2 20,7 18,9 0 0 7 4 N 1021,8 10 0 0,2
23.07.2017 05:00:00 15,6 14,5 15,1 20,8 18,9 5 3 17 9 NW 1021,4 18 0 0,0
23.07.2017 04:00:00 15,7 15,1 15,5 20,8 18,9 11 6 18 10 W 1021,5 4,1 0 0,2
23.07.2017 03:00:00 16,7 15,6 16,5 20,9 19,0 7 4 14 8 NNW 1021,5 6 0 0,0
23.07.2017 02:00:00 17,5 15,3 17,1 20,9 18,9 11 6 17 9 WNW 1021,3 18 0 0,0
23.07.2017 01:00:00 18,0 15,6 - - - 9 5 18 10 WNW 1021,0 17 - 0,0
23.07.2017 00:00:00 18,8 15,8 18,3 20,9 19,0 9 5 14 8 WNW 1020,2 18 0 0,0
22.07.2017 23:00:00 19,3 16,5 18,6 20,8 18,9 8 5 14 7 WNW 1019,6 18 0 0,0
22.07.2017 22:00:00 19,4 17,4 18,6 20,8 19,0 2 1 5 3 ZW 1018,4 17 0 0,0
22.07.2017 21:00:00 20,6 17,6 20,3 20,7 18,9 4 2 6 4 ZZO 1017,5 20 0 0,0
22.07.2017 20:00:00 21,5 16,2 22,6 20,7 19,0 4 2 11 6 WNW 1016,9 20 7 0,0
22.07.2017 19:00:00 21,7 16,6 24,4 20,6 19,0 6 3 11 6 NW 1016,1 20 4 0,0
22.07.2017 18:00:00 21,6 16,3 24,1 20,6 18,9 7 4 14 7 NNW 1015,8 20 0 0,0
22.07.2017 17:00:00 21,3 16,3 22,9 20,5 19,0 6 3 12 6 WNW 1015,8 20 0 0,0
22.07.2017 16:00:00 19,8 16,1 22,2 20,4 19,0 10 5 18 10 W 1015,8 20 0 0,0
22.07.2017 15:00:00 20,1 15,9 23,8 20,4 19,0 9 5 14 8 W 1015,6 20 0 0,0
22.07.2017 14:00:00 19,3 16,3 22,1 20,5 19,0 10 5 16 8 WNW 1015,8 20 0 0,0
22.07.2017 13:00:00 18,8 16,6 19,9 20,4 19,0 9 5 15 8 W 1015,9 20 0 0,0
22.07.2017 12:00:00 18,7 16,7 19,9 20,5 19,0 6 3 10 5 NW 1015,5 20 0 0,0
22.07.2017 11:00:00 17,8 15,6 - - - 2 1 5 3 O 1015,3 18 - -
22.07.2017 10:00:00 16,7 15,6 16,5 20,5 19,0 0 0 6 4 N 1015,5 6 0 0,0
22.07.2017 09:00:00 15,8 15,0 16,0 20,6 19,0 3 2 7 4 NW 1015,8 4,2 0 0,2
22.07.2017 08:00:00 15,8 15,2 16,0 20,6 19,0 4 2 10 5 NNW 1015,3 3,9 0 0,0
22.07.2017 07:00:00 16,0 15,5 - - - 2 1 5 3 WNW 1014,9 4,8 - 0,0
22.07.2017 06:00:00 16,1 15,6 16,0 20,7 19,0 4 2 8 4 WNW 1014,9 3,4 0 0,2
22.07.2017 05:00:00 16,6 15,6 16,4 20,7 19,0 4 2 13 7 N 1014,9 7 0 0,0
22.07.2017 04:00:00 17,1 16,6 16,7 20,8 19,0 5 3 8 4 WNW 1014,9 8 0 0,0
22.07.2017 03:00:00 17,1 16,5 16,7 20,8 19,0 2 1 8 5 ZW 1014,8 7 0 0,0
22.07.2017 02:00:00 17,3 16,5 16,8 20,8 19,0 3 1 10 5 O 1015,1 12 0 0,0
22.07.2017 01:00:00 17,3 16,5 16,9 20,8 19,0 0 0 4 2 N 1015,0 11 0 0,0
22.07.2017 00:00:00 17,3 16,7 17,0 20,8 19,0 0 0 3 2 N 1015,2 9 0 0,0
21.07.2017 23:00:00 17,2 16,6 17,1 20,8 19,0 2 1 6 3 NNO 1014,9 8 0 0,0
21.07.2017 22:00:00 17,2 16,6 17,0 20,8 19,0 4 2 23 13 NW 1014,8 6 0 0,0
21.07.2017 21:00:00 17,8 17,0 17,7 20,7 19,0 10 5 24 13 WNW 1014,0 7 0 0,0
21.07.2017 20:00:00 19,3 16,5 19,5 20,6 19,0 14 8 22 12 WNW 1013,1 20 0 0,0
21.07.2017 19:00:00 20,6 16,8 22,1 20,5 19,0 11 6 17 9 NW 1012,0 20 0 0,0
21.07.2017 18:00:00 21,2 15,9 24,3 20,5 19,0 9 5 20 11 NW 1011,9 20 7 0,0
21.07.2017 17:00:00 21,3 16,9 24,5 20,4 19,0 14 8 23 12 NW 1011,9 20 3 0,0
21.07.2017 16:00:00 21,0 16,0 24,3 20,3 19,0 13 7 29 16 WNW 1011,6 20 19 0,0
21.07.2017 15:00:00 20,7 16,1 23,3 20,4 19,0 19 10 31 17 WNW 1011,5 20 34 0,0
21.07.2017 14:00:00 20,0 17,2 22,4 20,4 19,0 14 8 29 15 WNW 1011,6 20 43 0,0
21.07.2017 13:00:00 17,8 16,7 16,4 20,4 19,0 10 6 17 9 WNW 1012,3 20 3 0,2
21.07.2017 12:00:00 16,2 15,4 16,1 20,5 19,0 4 2 24 13 OZO 1013,4 20 0 0,0
21.07.2017 11:00:00 16,1 15,3 15,7 20,5 18,9 13 7 31 17 ZO 1012,8 20 0 0,2
21.07.2017 10:00:00 15,6 15,3 15,5 20,6 19,0 4 2 13 7 ZZO 1014,2 17 0 3,0
21.07.2017 09:00:00 15,7 15,2 15,7 20,6 19,0 5 3 13 7 W 1015,0 6 0 0,4
21.07.2017 08:00:00 15,7 15,2 15,7 20,7 19,0 6 3 10 5 W 1014,4 6 0 0,0
21.07.2017 07:00:00 15,7 15,4 15,7 20,7 19,0 6 3 7 4 WNW 1013,8 3,9 0 0,4
21.07.2017 06:00:00 15,9 15,4 15,7 20,8 18,9 4 2 10 5 W 1014,2 3,4 0 0,2
21.07.2017 05:00:00 16,2 15,9 16,1 20,8 19,0 5 3 9 5 WNW 1014,2 1,8 0 0,0
21.07.2017 04:00:00 16,3 15,7 16,2 20,9 18,9 0 0 8 4 N 1014,4 12 0 0,0
21.07.2017 03:00:00 16,4 15,9 16,5 20,9 18,9 5 3 8 5 NNW 1015,3 9 0 0,0
21.07.2017 02:00:00 16,6 16,1 16,4 20,9 18,9 0 0 2 1 N 1015,8 13 0 0,0
21.07.2017 01:00:00 16,6 16,1 16,5 21,0 18,9 0 0 4 2 N 1016,5 9 0 0,0
21.07.2017 00:00:00 16,6 16,0 16,4 21,0 18,9 0 0 3 1 N 1016,9 17 0 0,0
20.07.2017 23:00:00 16,6 16,0 16,4 21,0 18,9 2 1 6 4 ZZO 1017,1 18 0 0,0
20.07.2017 22:00:00 16,5 16,0 16,4 21,0 18,9 4 2 11 6 WNW 1017,2 3,9 0 0,8
20.07.2017 21:00:00 16,8 16,3 16,9 21,0 18,9 5 3 14 8 NW 1017,0 3,6 0 0,8
20.07.2017 20:00:00 17,1 16,5 17,2 21,0 18,9 9 5 14 8 W 1016,8 5 0 0,2
20.07.2017 19:00:00 17,6 17,0 17,9 21,0 19,0 8 4 15 8 WNW 1016,5 5 0 0,2
20.07.2017 18:00:00 17,7 17,1 18,3 20,9 18,9 5 3 17 9 NW 1016,6 2,6 0 1,6
20.07.2017 17:00:00 17,8 17,2 18,4 21,0 18,9 8 4 15 8 NW 1016,8 2,6 0 1,0
20.07.2017 16:00:00 18,1 17,3 18,1 20,9 18,9 4 2 18 10 W 1016,8 4,6 0 0,6
20.07.2017 15:00:00 18,6 16,9 18,8 21,0 18,9 4 2 18 10 NNO 1016,6 20 0 0,2
20.07.2017 14:00:00 18,4 17,6 18,9 21,0 18,9 7 4 16 9 NNW 1016,9 12 0 0,4
20.07.2017 13:00:00 18,6 16,6 19,6 21,0 18,9 9 5 15 8 NW 1016,8 20 0 0,0
20.07.2017 12:00:00 18,3 17,0 18,0 21,1 18,9 7 4 12 6 NNW 1016,8 20 0 0,0
20.07.2017 11:00:00 17,2 16,2 17,9 21,1 18,9 7 4 16 9 WNW 1017,1 4,3 0 0,0
20.07.2017 10:00:00 17,0 16,0 17,0 21,2 18,9 6 3 14 8 NW 1017,0 8 0 0,0
20.07.2017 09:00:00 16,8 16,0 16,7 21,2 18,9 8 5 14 8 WNW 1016,9 6 0 0,2
20.07.2017 08:00:00 16,7 16,1 16,6 21,3 18,9 5 3 10 5 NW 1016,8 6 0 0,4
20.07.2017 07:00:00 16,9 16,3 16,6 21,3 18,9 5 3 15 8 NNW 1016,6 6 0 0,2
20.07.2017 06:00:00 17,1 16,5 16,8 21,4 18,9 9 5 29 15 NW 1016,4 9 0 0,4
20.07.2017 05:00:00 17,7 17,1 17,4 21,4 18,9 16 9 26 14 WNW 1015,9 5 0 1,6
20.07.2017 04:00:00 18,5 17,8 18,3 21,5 18,9 6 3 12 6 WNW 1015,7 2,0 0 1,0
20.07.2017 03:00:00 19,0 18,0 18,5 21,5 18,9 8 5 15 8 NW 1015,9 17 0 0,0
20.07.2017 02:00:00 19,1 17,9 18,6 21,6 18,9 6 3 14 7 NNW 1016,0 10 0 0,0
20.07.2017 01:00:00 19,4 18,1 18,6 21,6 18,9 10 5 31 17 NW 1015,6 20 0 1,2
20.07.2017 00:00:00 20,6 18,2 19,8 21,6 18,9 20 11 34 19 NW 1014,8 18 0 0,0
19.07.2017 23:00:00 22,0 18,2 21,0 21,6 18,9 16 9 31 17 WNW 1013,4 20 0 0,0
19.07.2017 22:00:00 22,2 18,8 21,2 21,5 18,9 16 9 30 16 WNW 1012,3 19 0 0,0
19.07.2017 21:00:00 22,6 19,4 21,6 21,5 18,9 8 5 19 11 NW 1011,3 20 14 0,0
19.07.2017 20:00:00 24,4 20,7 - - - 9 5 18 10 NW 1011,1 9 - -
19.07.2017 19:00:00 25,2 19,8 25,9 21,3 18,9 13 7 23 12 NW 1011,4 20 0 0,0
19.07.2017 18:00:00 26,0 19,4 26,8 21,2 18,8 9 5 19 11 W 1011,4 20 3 0,0
19.07.2017 17:00:00 26,0 19,2 27,7 21,1 18,8 14 8 25 13 W 1010,9 20 12 0,0
19.07.2017 16:00:00 26,3 19,9 29,3 21,0 18,8 14 7 22 12 W 1010,8 20 29 0,0
19.07.2017 15:00:00 26,4 20,7 29,1 21,0 18,8 15 8 23 12 WNW 1010,7 19 27 0,0
19.07.2017 14:00:00 26,0 20,3 28,9 20,9 18,8 13 7 46 25 NW 1010,6 20 50 0,0
19.07.2017 13:00:00 24,1 19,8 24,4 21,0 18,8 27 15 41 22 WNW 1011,3 19 9 0,0
19.07.2017 12:00:00 24,1 15,8 20,5 21,1 18,8 12 7 27 15 W 1010,6 20 0 0,0
19.07.2017 11:00:00 25,4 12,6 20,2 21,1 18,8 16 9 27 15 ZZW 1011,1 20 0 0,0
19.07.2017 10:00:00 21,9 17,5 20,1 21,2 18,8 11 6 22 12 O 1012,2 19 0 0,0
19.07.2017 09:00:00 24,7 15,6 23,5 21,3 18,8 4 2 34 18 ONO 1010,8 20 28 0,0
19.07.2017 08:00:00 24,0 15,0 20,9 21,4 18,8 20 11 32 17 ZZO 1009,6 20 35 0,0
19.07.2017 07:00:00 21,8 16,3 20,4 21,3 18,8 18 10 41 22 ZZO 1009,8 20 3 0,0
19.07.2017 06:00:00 23,1 16,6 19,6 21,5 18,8 21 12 37 20 ZO 1010,1 20 0 0,0
19.07.2017 05:00:00 21,1 17,3 17,7 21,5 18,8 13 7 24 13 ZO 1012,2 20 0 0,0
19.07.2017 04:00:00 19,7 17,7 17,5 21,5 18,8 5 3 9 5 ZZO 1014,0 20 0 0,0
19.07.2017 03:00:00 21,2 18,0 19,6 21,5 18,8 4 2 20 11 NNW 1014,3 20 0 0,0
19.07.2017 02:00:00 22,4 18,2 20,1 21,6 18,8 10 5 17 9 NW 1014,3 20 0 0,0
19.07.2017 01:00:00 22,3 18,3 20,4 21,6 18,8 9 5 13 7 ZO 1013,5 20 0 0,0
19.07.2017 00:00:00 23,8 18,0 21,9 21,6 18,8 6 4 31 17 NW 1013,8 20 0 0,0
18.07.2017 23:00:00 24,8 20,1 20,2 21,6 18,8 24 13 61 33 WNW 1012,3 20 0 0,0
18.07.2017 22:00:00 26,3 14,7 22,7 21,5 18,8 9 5 19 10 OZO 1008,6 20 0 0,0
18.07.2017 21:00:00 27,5 14,2 25,8 21,4 18,8 9 5 25 14 OZO 1008,6 20 44 0,0
18.07.2017 20:00:00 30,4 14,5 30,0 21,3 18,8 10 5 29 16 ZO 1007,9 20 53 0,0
18.07.2017 19:00:00 30,9 21,4 33,9 21,2 18,8 10 5 27 15 OZO 1007,7 20 44 0,0
18.07.2017 18:00:00 31,3 21,8 35,9 21,1 18,8 10 6 25 13 O 1008,4 20 60 0,0
18.07.2017 17:00:00 32,5 20,4 37,4 20,8 18,8 9 5 21 11 O 1008,6 20 54 0,0
18.07.2017 16:00:00 31,9 20,2 36,0 20,6 18,8 13 7 27 14 O 1009,2 20 54 0,0
18.07.2017 15:00:00 30,6 20,2 36,9 20,5 18,8 13 7 25 13 O 1009,9 20 54 0,0
18.07.2017 14:00:00 30,1 20,6 34,4 20,5 18,8 11 6 20 11 O 1010,5 20 54 0,0
18.07.2017 13:00:00 28,8 20,5 32,4 20,4 18,8 8 4 17 9 O 1010,9 20 43 0,0
18.07.2017 12:00:00 26,9 18,5 27,2 20,5 18,8 10 5 18 10 O 1011,5 20 32 0,0
18.07.2017 11:00:00 24,4 17,1 26,9 20,5 18,7 11 6 21 11 O 1011,8 20 43 0,0
18.07.2017 10:00:00 23,8 16,3 23,3 20,5 18,8 9 5 19 11 OZO 1012,2 20 60 0,0
18.07.2017 09:00:00 21,9 14,8 20,4 20,6 18,7 13 7 27 15 OZO 1012,4 20 60 0,0
18.07.2017 08:00:00 20,1 13,8 16,9 20,7 18,8 11 6 32 17 ZO 1012,7 20 60 0,0
18.07.2017 07:00:00 18,0 13,5 14,6 20,8 18,8 9 5 19 11 OZO 1012,7 20 4 0,0
18.07.2017 06:00:00 18,2 13,5 15,4 20,9 18,8 11 6 33 18 ZZO 1012,8 20 0 0,0
18.07.2017 05:00:00 18,5 14,0 15,4 20,9 18,8 18 10 29 16 ZO 1012,6 20 0 0,0
18.07.2017 04:00:00 17,8 14,1 14,8 21,0 18,7 6 3 16 9 O 1013,0 20 0 0,0
18.07.2017 03:00:00 18,5 14,0 16,5 21,1 18,8 5 3 27 15 OZO 1013,2 20 0 0,0
18.07.2017 02:00:00 19,1 14,4 17,9 21,1 18,8 22 12 30 16 ZZO 1013,3 20 0 0,0
18.07.2017 01:00:00 19,8 14,2 16,6 21,2 18,7 17 9 28 15 ZZO 1013,7 20 0 0,0
18.07.2017 00:00:00 20,3 14,4 18,8 21,3 18,7 21 12 29 16 ZZO 1013,7 20 0 0,0
17.07.2017 23:00:00 20,9 14,5 19,0 21,3 18,7 21 11 30 16 ZZO 1013,9 20 0 0,0
17.07.2017 22:00:00 21,8 14,4 20,4 21,4 18,7 16 9 42 23 ZO 1014,2 20 7 0,0
17.07.2017 21:00:00 23,1 13,6 18,7 21,3 18,7 27 14 58 32 ZZO 1014,3 20 42 0,0
17.07.2017 20:00:00 21,9 14,5 17,4 21,3 18,7 29 16 48 26 Z 1015,5 20 0 1,8
17.07.2017 19:00:00 24,8 19,2 21,3 21,3 18,7 11 6 23 12 W 1015,1 12 0 0,2
17.07.2017 18:00:00 27,1 17,6 27,9 21,2 18,7 6 4 22 12 ZZO 1013,2 20 30 0,0
17.07.2017 17:00:00 27,8 16,7 23,9 21,1 18,7 10 6 37 20 OZO 1013,8 20 23 0,0
17.07.2017 16:00:00 23,5 15,5 23,3 20,9 18,7 18 10 36 19 ZO 1014,7 20 0 0,0
17.07.2017 15:00:00 27,1 18,1 26,7 20,8 18,7 8 4 20 11 OZO 1014,3 20 1 0,0
17.07.2017 14:00:00 28,7 18,8 31,3 20,8 18,7 5 3 16 9 OZO 1014,4 20 30 0,0
17.07.2017 13:00:00 30,8 19,2 37,3 20,7 18,7 6 3 13 7 NO 1014,3 18 60 0,0
17.07.2017 12:00:00 28,7 18,5 34,9 20,7 18,7 8 4 19 10 OZO 1014,8 20 60 0,0
17.07.2017 11:00:00 26,7 17,7 27,8 20,7 18,7 10 5 24 13 O 1015,3 20 60 0,0
17.07.2017 10:00:00 24,9 17,4 23,8 20,8 18,7 10 6 21 12 O 1016,0 20 60 0,0
17.07.2017 09:00:00 22,4 16,9 21,7 20,9 18,7 8 5 17 9 ZO 1016,8 20 60 0,0
17.07.2017 08:00:00 19,6 16,2 13,7 21,0 18,7 4 2 8 5 OZO 1017,7 20 60 0,0

tt = temperatuur
td = dauwpunt
tt 5cm = temperatuur 5cm
tt -20cm = temperatuur -20cm
tt -100cm = temperatuur -100cm
ff = windsnelheid
fx = windstoten
dd = windrichting
ppp = luchtdruk
vv = zicht
sd = Zonneschijnduur
rr = neerslag

Weerstations in de omgeving